EDT,Max TemperatureF,Mean TemperatureF,Min TemperatureF,Max Dew PointF,MeanDew PointF,Min DewpointF,Max Humidity, Mean Humidity, Min Humidity, Max Sea Level PressureIn, Mean Sea Level PressureIn, Min Sea Level PressureIn, Max VisibilityMiles, Mean VisibilityMiles, Min VisibilityMiles, Max Wind SpeedMPH, Mean Wind SpeedMPH, Max Gust SpeedMPH,PrecipitationIn, CloudCover, Events, WindDirDegrees
2011-10-1,57,50,42,54,46,37,94,88,81,29.88,29.78,29.72,10,7,2,12,4,20,0.00,8,Rain,320
2011-10-2,55,50,44,52,47,39,94,87,81,29.96,29.92,29.89,10,8,2,8,6,,0.00,8,Rain,335
2011-10-3,64,58,51,55,50,46,94,80,56,30.10,30.03,29.93,10,9,0,8,2,,0.00,7,Fog,189
2011-10-4,59,54,48,52,49,46,94,87,67,30.09,30.05,30.00,10,8,0,8,2,,0.00,8,Fog-Rain,334
2011-10-5,51,46,42,46,38,21,87,67,37,30.19,30.05,29.97,10,10,7,24,10,36,0.00,5,Rain,321
2011-10-6,50,42,33,27,23,19,65,50,32,30.31,30.27,30.23,10,10,10,16,7,24,0.00,0,,318
2011-10-7,62,46,30,37,31,28,93,66,27,30.45,30.40,30.36,10,10,10,8,0,,0.00,1,,178
2011-10-8,73,55,37,48,41,34,93,66,31,30.48,30.42,30.36,10,9,0,12,2,16,0.00,0,Fog,210
2011-10-9,77,60,42,50,45,39,94,68,27,30.40,30.35,30.27,10,8,0,12,1,16,0.00,0,Fog,257
2011-10-10,71,58,46,52,45,34,94,62,25,30.25,30.22,30.18,10,8,1,17,4,26,0.00,1,,317
2011-10-11,68,52,37,41,33,27,87,53,24,30.29,30.24,30.19,10,10,10,6,1,,0.00,0,,281
2011-10-12,60,50,41,45,40,36,87,69,51,30.25,30.20,30.13,10,10,10,10,2,,0.00,0,,177
2011-10-13,60,54,48,52,47,41,88,79,71,30.10,29.96,29.83,10,9,2,5,2,,0.00,6,Rain,146
2011-10-14,64,58,53,59,54,50,94,87,82,29.81,29.65,29.37,10,9,2,10,1,,0.00,8,Rain,106
2011-10-15,60,55,50,57,45,36,94,75,47,29.43,29.35,29.21,10,9,2,17,8,23,0.00,7,Rain,201
2011-10-16,53,48,44,41,36,34,87,63,47,29.68,29.61,29.49,10,10,7,16,9,25,0.00,8,Rain,223
2011-10-17,53,45,37,45,36,28,93,70,38,29.66,29.58,29.51,10,10,7,18,7,41,0.00,5,Rain,216
2011-10-18,51,46,42,43,40,37,93,74,58,29.90,29.77,29.66,10,9,1,9,2,,0.00,7,Rain,218
2011-10-19,53,46,39,45,40,36,93,78,54,30.03,29.96,29.88,10,10,2,10,2,17,0.00,6,Rain,61
2011-10-20,68,60,51,55,49,46,82,72,55,29.70,29.51,29.37,10,10,7,20,7,29,0.00,5,Rain,112
2011-10-21,53,50,46,41,39,34,81,69,54,29.89,29.72,29.59,10,10,10,12,7,23,0.00,8,,206
2011-10-22,46,44,42,41,39,37,93,83,71,30.06,29.98,29.91,10,10,4,9,1,,0.00,8,Rain,286
2011-10-23,48,44,39,41,35,32,93,72,54,30.11,30.08,30.06,10,10,0,6,2,,0.00,7,Fog,272
2011-10-24,55,44,32,37,34,30,100,73,44,30.12,30.03,29.89,10,8,0,14,3,20,0.00,2,Fog,168
2011-10-25,50,44,39,43,36,30,93,75,50,29.96,29.89,29.85,10,9,0,22,6,38,0.00,6,Fog-Rain,272
2011-10-26,46,39,32,34,32,30,100,74,57,29.97,29.89,29.79,10,10,1,9,3,,0.00,4,,303
2011-10-27,39,36,33,32,26,21,87,71,56,29.82,29.79,29.76,10,10,10,9,3,,0.00,8,,334
2011-10-28,42,36,30,23,19,14,69,54,36,30.18,30.05,29.90,10,10,10,15,8,23,0.00,3,,298
2011-10-29,,,,,,,,,,,,,,,,,,,,,,
2011-10-30,,,,,,,,,,,,,,,,,,,,,,
2011-10-31,46,38,30,30,26,23,87,59,43,30.36,30.33,30.30,10,10,5,10,4,,0.00,1,,166